星链-5138 (STARLINK-5138 )

导读 | 豆包AI

STARLINK-5138是美国SpaceX公司星链星座的一员,于2022年10月20日发射,属于SpaceX打造的全球低轨卫星互联网项目。星链旨在为全球尤其是偏远地区提供低延迟高速互联网接入,该卫星运行在近地轨道,参与构建全球覆盖的通信网络,推动卫星互联网民用与商业应用,但大规模部署也引发太空安全与天文观测等争议。

基本信息
目录编号:
54078
目录名称:
STARLINK-5138
国际标识:
2022-136AD
轨道中心:
EARTH
卫星名称:
星链-5138
卫星全名:
星链-5138 (STARLINK-5138 )
卫星状态:
已陨落 最后检测时间 2025-11-24
发射日期:
2022-10-20 UTC
国别 :
美国 (US)
星等 :
--
轨道信息
数据来源 国际轨道数据
星历时间: 2025-11-24T00:17:43+0800
轨道信息已过期111天
半长轴: 6533.823km
偏心率: 0.0002251
轨道倾角: 53.198°
近地点辐角 283.104°
升交点赤经 52.609°
平近点角 76.976°
近地点: 154.217km
远地点: 157.159km
周期: 87.601分钟
每日圈数: 16.438105
详细信息
固有亮度:
5
最大亮度:
2.5
卫星平台:
Starlink v1.5
覆盖范围:
全球
运营商:
太空探索技术公司
运营商所在国:
美国
制造商(研发单位):
太空探索技术公司
制造商所在国:
美国
使用方式:
暂无
卫星简介
星链(Starlink)计划是由太空探索技术公司(SpaceX)提出的一个巨型低轨卫星互联网星座项目,计划在2019年至2024年间在太空搭建由约1.2万颗卫星组成的“星链”网络,其中1584颗将部署在地球上空550千米处的近地轨道,并从2020年开始工作。该卫星仍在工作。